Austin, TX

7:10 AM CST on February 23, 2017 (GMT -0600)
Austin Bergstrom International

Weather History for KAUS - December, 2013

Change the Weather History Date:

Tuesday, December 3, 2013

  Actual Average Record
Temperature  
Mean Temperature 65 °F 53 °F  
Max Temperature 86 °F 66 °F 86 °F (2013)
Min Temperature 44 °F 40 °F 27 °F (1976)
Degree Days  
Heating Degree Days 0 13  
Month to date heating degree days 5 39  
Since 1 July heating degree days 330 324  
Cooling Degree Days 0 1  
Month to date cooling degree days 1 3  
Year to date cooling degree days 3041 2744  
Growing Degree Days 16 (Base 50)    
Moisture  
Dew Point 47 °F    
Average Humidity 62    
Maximum Humidity 100    
Minimum Humidity 23    
Precipitation  
Precipitation 0.00 in 0.08 in 1.79 in (2016)
Month to date precipitation 0.00 0.25  
Year to date precipitation 36.18 32.68  
Snow  
Snow 0.00 in - - ()
Month to date snowfall 0.0  
Since 1 July snowfall 0.0  
Snow Depth 0.00 in    
Sea Level Pressure  
Sea Level Pressure 29.65 in    
Wind  
Wind Speed 5 mph (SSW)    
Max Wind Speed 16 mph    
Max Gust Speed 20 mph    
Visibility 10 miles    
Events Fog    
T = Trace of Precipitation, MM = Missing Value Source: NWS Daily Summary

Daily Weather History Graph

Daily Weather History Graph

Search for Another Location

Airport or City:

Trip Planner

Search our weather history database for the weather conditions in past years. The results will help you decide how hot, cold, wet, or windy it might be!

Date:

Astronomy

Dec. 03, 2013 Rise Set
Actual Time 7:11 AM CST 5:30 PM CST
Civil Twilight 6:45 AM CST 5:56 PM CST
Nautical Twilight 6:15 AM CST 6:25 PM CST
Astronomical Twilight 5:46 AM CST 6:54 PM CST
Moon 7:43 AM CST (12/3) 6:33 PM CST (12/3)
Length of Visible Light 11h 11m
Length of Day
10h 18m
New Moon, 1% of the Moon is Illuminated
Dec 3
New Moon
Dec 9
First Quarter
Dec 17
Full
Dec 25
Last Quarter
Jan 1
New

Hourly Weather History & Observations

Time (CST) Temp. Windchill Dew Point Humidity Pressure Visibility Wind Dir Wind Speed Gust Speed Precip Events Conditions
12:53 AM 54.0 °F - 51.1 °F 90% 29.68 in 10.0 mi SW 3.5 mph - N/A   Partly Cloudy
1:53 AM 55.9 °F - 52.0 °F 87% 29.67 in 10.0 mi Calm Calm - N/A   Clear
2:53 AM 48.9 °F - 48.0 °F 97% 29.66 in 10.0 mi Calm Calm - N/A   Partly Cloudy
3:53 AM 46.9 °F - 46.0 °F 97% 29.66 in 10.0 mi Calm Calm - N/A   Partly Cloudy
4:53 AM 46.9 °F - 46.0 °F 97% 29.65 in 10.0 mi Calm Calm - N/A Fog Patches of Fog
5:53 AM 46.0 °F - 45.0 °F 96% 29.67 in 9.0 mi Calm Calm - N/A Fog Patches of Fog
6:53 AM 45.0 °F 42.6 °F 44.1 °F 97% 29.68 in 6.0 mi South 4.6 mph - N/A Fog Partly Cloudy
7:53 AM 51.1 °F - 50.0 °F 96% 29.69 in 8.0 mi SSW 4.6 mph - N/A Fog Patches of Fog
8:53 AM 62.1 °F - 55.9 °F 80% 29.68 in 10.0 mi South 3.5 mph - N/A   Partly Cloudy
9:53 AM 72.0 °F - 55.9 °F 57% 29.70 in 10.0 mi SW 9.2 mph - N/A   Partly Cloudy
10:53 AM 78.1 °F - 48.0 °F 35% 29.69 in 10.0 mi WSW 8.1 mph - N/A   Scattered Clouds
11:53 AM 81.0 °F - 44.1 °F 27% 29.66 in 10.0 mi SW 5.8 mph - N/A   Scattered Clouds
12:53 PM 82.0 °F - 43.0 °F 25% 29.62 in 10.0 mi SSW 10.4 mph - N/A   Scattered Clouds
1:53 PM 84.0 °F - 42.1 °F 23% 29.60 in 10.0 mi SW 9.2 mph - N/A   Scattered Clouds
2:53 PM 84.9 °F - 42.1 °F 22% 29.58 in 10.0 mi SSW 9.2 mph - N/A   Scattered Clouds
3:53 PM 84.0 °F - 44.1 °F 25% 29.57 in 10.0 mi SSW 12.7 mph - N/A   Scattered Clouds
4:53 PM 79.0 °F - 45.0 °F 30% 29.59 in 10.0 mi SSW 9.2 mph - N/A   Mostly Cloudy
5:53 PM 66.9 °F - 46.0 °F 47% 29.61 in 10.0 mi South 5.8 mph - N/A   Mostly Cloudy
6:53 PM 64.0 °F - 46.9 °F 54% 29.63 in 10.0 mi Calm Calm - N/A   Mostly Cloudy
7:53 PM 57.0 °F - 48.0 °F 72% 29.66 in 10.0 mi South 4.6 mph - N/A   Mostly Cloudy
8:53 PM 59.0 °F - 48.0 °F 67% 29.67 in 10.0 mi SW 3.5 mph - N/A   Mostly Cloudy
9:53 PM 62.1 °F - 51.1 °F 67% 29.67 in 10.0 mi SW 4.6 mph - N/A   Scattered Clouds
10:53 PM 57.9 °F - 51.1 °F 78% 29.68 in 10.0 mi South 3.5 mph - N/A   Scattered Clouds
11:53 PM 61.0 °F - 51.1 °F 70% 29.67 in 10.0 mi SSE 4.6 mph - N/A   Partly Cloudy